User: anonymous   Login
Location: Unspecified
(0.0000°N, 0.0000°E)
Time: 15:54:18
(UTC+00:00)
Language:

SEEDS - Orbit

View from above orbital plane
View from above orbital plane
View from above satellite
View from above satellite

Ground track
Ground track

The orbit data is extracted from the following two-line orbital elements,

1 32791U 08021J   21267.85606697  .00000823  00000-0  87403-4 0  9997
2 32791  97.5808 248.7066 0013249   2.4895 357.6387 14.91532457727670
Epoch (UTC): 24 September 2021 20:32:44
Eccentricity: 0.0013249
inclination: 97.5808°
perigee height: 584 km
apogee height: 602 km
right ascension of ascending node: 248.7066°
argument of perigee: 2.4895°
revolutions per day: 14.91532457
mean anomaly at epoch: 357.6387°
orbit number at epoch: 72767

The dashed part of the orbit path shows where the satellite is in the earth's shadow,  

DLR